Terug naar catalogus

CHAOHU-1

ActiefWetenschapSSO
NORAD 51843·PAYLOAD·🇨🇳 China
Deze satellietnaam is nog niet bevestigd door officiële bronnen.

Gelanceerd Feb 27, 2022 vanaf Wenchang Space Launch Site

Loading…

Volgende Passages (komende 24 uur)

TLE

VersSource: Space-Track

Epoch: Sep 14, 2026, 13:54 UTC

1 51843U 22019V   26257.57928749  .00055226  00000-0  60492-3 0  9992
2 51843  97.3481 347.8787 0004930 183.9090 176.2131 15.63094604253318

Volg CHAOHU-1 in realtime met AllMySat

Download on the App Store